Tracking 19903 objects as of 17-Oct-2019
HD Live streaming from Space Station
objects crossing your sky now

IRIDIUM 33 DEB

Track IRIDIUM 33 DEB now!
10-day predictions


NORAD ID: 35050
Int'l Code: 1997-051NW
Perigee: 613.2 km
Apogee: 655.6 km
Inclination: 86.3 °
Period: 97.3 minutes
Semi major axis: 7005 km
RCS: 0.0039 m2 (small)
Launch date: September 14, 1997
Source: United States (US)
Launch site: TYURATAM MISSILE AND SPACE COMPLEX (TTMTR)

Note: This is SATELLITE DEBRIS
aabbcc
Your satellite tracking list
Your tracking list is empty




NASA's NSSDC Master Catalog

Two Line Element Set (TLE):
1 35050U 97051NW  19288.04902559 +.00002965 +00000-0 +37963-3 0  9990
2 35050 086.3080 200.9254 0030241 003.5293 356.6135 14.80658733556228
Source of the keplerian elements: AFSPC